Date String (YYYY-MM-DD hh:mm:ss) UTC,Instrument flags,absolute air pressure of the measurement (hPa),sample flow rate (lpm),inlet stack bypass flow (lpm),air temperature of the measurement (°C),ambient temperature measured by the external sensor (°C),aerosol sample conditioner tube jacket temperature (°C),OPC LED temperature (°C),internal box temperature (°C),relative humidity of the measurement (%),span deviation,mass concentration of particles derived from Lorenz-Mie calculation of OPC scattering (μg/m³),mass concentration of particles derived from Lorenz-Mie calculation of OPC scattering (μg/m³),mass concentration of particles derived from Lorenz-Mie calculation of OPC scattering (μg/m³)
DateTimeUTC,F1_M11,P_M11,Q1_M11,Q2_M11,T1_M11,T2_M11,T3_M11,T4_M11,T5_M11,U1_M11,ZSPAN_M11,X0_M11,X2_M11,X1_M11
2024-03-05 19:00:00,SystemResetWarning,0827.3,5.00,000.00,018.3,017.4,000.0,026.9,020.0,13.5,0000.0,0015.96,0003.09,0001.79
2024-03-05 19:01:00,SystemResetWarning,0827.2,5.00,000.00,018.3,017.5,000.0,026.9,020.0,13.5,0000.0,0015.85,0003.13,0001.79
2024-03-05 19:02:00,SystemResetWarning,0827.2,5.00,000.00,018.3,017.5,000.0,026.9,020.0,13.6,0000.0,0015.16,0003.11,0001.79
2024-03-05 19:03:00,SystemResetWarning,0827.2,5.01,000.00,018.3,017.5,000.0,026.9,020.0,13.6,0000.0,0015.41,0003.10,0001.80
2024-03-05 19:04:00,SystemResetWarning,0827.2,5.00,000.00,018.3,017.5,000.0,026.8,020.0,13.8,0000.0,0015.11,0003.11,0001.81
2024-03-05 19:05:00,SystemResetWarning,0827.2,5.01,000.00,018.3,017.5,000.0,026.8,020.0,13.7,0000.0,0014.88,0003.06,0001.81
2024-03-05 19:06:00,SystemResetWarning,0827.1,5.00,000.00,018.3,017.5,000.0,026.8,020.0,13.8,0000.0,0014.70,0003.05,0001.81
2024-03-05 19:07:00,SystemResetWarning,0827.1,5.00,000.00,018.3,017.5,000.0,026.8,020.0,13.9,0000.0,0013.81,0002.98,0001.81
2024-03-05 19:08:00,SystemResetWarning,0827.1,5.00,000.00,018.3,017.5,000.0,026.8,020.0,14.0,0000.0,0013.57,0003.01,0001.83
2024-03-05 19:09:00,SystemResetWarning,0827.1,4.99,000.00,018.3,017.5,000.0,026.8,020.0,14.2,0000.0,0013.93,0003.07,0001.84
2024-03-05 19:10:00,SystemResetWarning,0827.1,4.99,000.00,018.3,017.5,000.0,026.8,020.0,14.1,0000.0,0012.93,0003.02,0001.85
2024-03-05 19:11:00,SystemResetWarning,0827.1,5.00,000.00,018.3,017.5,000.0,026.8,020.0,14.0,0000.0,0011.99,0003.01,0001.88
2024-03-05 19:12:00,SystemResetWarning,0827.1,5.00,000.00,018.3,017.6,000.0,026.8,020.0,13.9,0000.0,0012.00,0003.02,0001.90
2024-03-05 19:13:00,SystemResetWarning,0827.1,5.01,000.00,018.3,017.6,000.0,026.8,020.0,13.9,0000.0,0013.02,0003.09,0001.92
2024-03-05 19:14:00,SystemResetWarning,0827.0,5.00,000.00,018.3,017.6,000.0,026.8,020.0,14.0,0000.0,0013.63,0003.12,0001.94
2024-03-05 19:15:00,SystemResetWarning,0827.0,5.00,000.00,018.3,017.6,000.0,026.8,020.0,14.0,0000.0,0014.13,0003.11,0001.95
2024-03-05 19:16:00,SystemResetWarning,0827.0,5.00,000.00,018.3,017.6,000.0,026.8,020.0,14.3,0000.0,0014.75,0003.11,0001.97
2024-03-05 19:17:00,SystemResetWarning,0827.0,5.00,000.00,018.3,017.6,000.0,026.8,020.0,14.4,0000.0,0015.58,0003.14,0001.99
2024-03-05 19:18:00,SystemResetWarning,0827.0,4.99,000.00,018.3,017.6,000.0,026.8,020.0,14.2,0000.0,0015.03,0003.18,0002.00
2024-03-05 19:19:00,SystemResetWarning,0827.0,4.98,000.00,018.3,017.6,000.0,026.8,020.0,14.5,0000.0,0014.53,0003.19,0002.00
2024-03-05 19:20:00,SystemResetWarning,0827.0,5.00,000.00,018.3,017.6,000.0,026.8,020.0,14.3,0000.0,0013.29,0003.16,0002.01
2024-03-05 19:21:00,SystemResetWarning,0827.0,5.01,000.00,018.3,017.6,000.0,026.8,020.0,14.3,0000.0,0013.08,0003.17,0002.02
2024-03-05 19:22:00,SystemResetWarning,0827.0,5.01,000.00,018.3,017.6,000.0,026.8,020.0,14.3,0000.0,0013.31,0003.16,0002.02
2024-03-05 19:23:00,SystemResetWarning,0827.0,5.00,000.00,018.3,017.6,000.0,026.8,020.0,14.4,0000.0,0013.59,0003.16,0002.01
2024-03-05 19:24:00,SystemResetWarning,0827.0,4.99,000.00,018.3,017.6,000.0,026.8,020.0,14.6,0000.0,0013.54,0003.17,0002.01
2024-03-05 19:25:00,SystemResetWarning,0827.0,4.99,000.00,018.3,017.6,000.0,026.8,020.0,14.7,0000.0,0013.99,0003.20,0002.00
2024-03-05 19:26:00,SystemResetWarning,0827.0,5.00,000.00,018.3,017.6,000.0,026.8,020.0,14.5,0000.0,0013.40,0003.20,0002.00
2024-03-05 19:27:00,SystemResetWarning,0826.9,5.00,000.00,018.3,017.6,000.0,026.8,020.0,14.5,0000.0,0012.72,0003.19,0002.00
2024-03-05 19:28:00,SystemResetWarning,0826.9,5.00,000.00,018.3,017.6,000.0,026.8,020.0,14.5,0000.0,0012.04,0003.18,0002.00
2024-03-05 19:29:00,SystemResetWarning,0826.9,5.01,000.00,018.3,017.6,000.0,026.8,020.0,14.4,0000.0,0011.96,0003.18,0002.00
2024-03-05 19:30:00,SystemResetWarning,0826.9,5.00,000.00,018.3,017.6,000.0,026.8,020.0,14.4,0000.0,0012.27,0003.20,0002.02
2024-03-05 19:31:00,SystemResetWarning,0826.9,5.01,000.00,018.4,017.7,000.0,026.8,020.0,14.4,0000.0,0012.58,0003.24,0002.03
2024-03-05 19:32:00,SystemResetWarning,0826.9,5.00,000.00,018.4,017.7,000.0,026.8,020.0,14.5,0000.0,0012.75,0003.25,0002.04
2024-03-05 19:33:00,SystemResetWarning,0826.8,5.00,000.00,018.4,017.7,000.0,026.8,020.0,14.4,0000.0,0012.52,0003.28,0002.05
2024-03-05 19:34:00,SystemResetWarning,0826.8,4.99,000.00,018.4,017.7,000.0,026.8,020.0,14.5,0000.0,0012.22,0003.32,0002.08
2024-03-05 19:35:00,SystemResetWarning,0826.9,4.99,000.00,018.4,017.7,000.0,026.8,020.0,14.4,0000.0,0011.37,0003.29,0002.09
2024-03-05 19:36:00,SystemResetWarning,0826.9,5.00,000.00,018.4,017.7,000.0,026.8,020.0,14.3,0000.0,0009.73,0003.25,0002.10
2024-03-05 19:37:00,SystemResetWarning,0826.9,5.02,000.00,018.3,017.7,000.0,026.8,020.0,14.3,0000.0,0009.25,0003.31,0002.12
2024-03-05 19:38:00,SystemResetWarning,0826.9,5.00,000.00,018.3,017.7,000.0,026.8,020.0,14.4,0000.0,0010.49,0003.35,0002.13
2024-03-05 19:39:00,SystemResetWarning,0826.9,4.98,000.00,018.3,017.7,000.0,026.8,020.0,14.4,0000.0,0011.30,0003.41,0002.14
2024-03-05 19:40:00,SystemResetWarning,0826.8,5.01,000.00,018.3,017.7,000.0,026.8,020.0,14.4,0000.0,0011.41,0003.47,0002.17
2024-03-05 19:41:00,SystemResetWarning,0826.8,5.01,000.00,018.3,017.7,000.0,026.8,020.0,14.4,0000.0,0010.97,0003.47,0002.19
2024-03-05 19:42:00,SystemResetWarning,0826.8,5.00,000.00,018.3,017.7,000.0,026.8,020.0,14.6,0000.0,0010.46,0003.48,0002.20
2024-03-05 19:43:00,SystemResetWarning,0826.8,5.01,000.00,018.3,017.7,000.0,026.8,020.0,14.4,0000.0,0010.30,0003.53,0002.23
2024-03-05 19:44:00,SystemResetWarning,0826.7,4.98,000.00,018.3,017.7,000.0,026.8,020.0,14.5,0000.0,0010.46,0003.53,0002.24
2024-03-05 19:45:00,SystemResetWarning,0826.7,4.99,000.00,018.3,017.7,000.0,026.8,020.0,14.6,0000.0,0011.47,0003.53,0002.24
2024-03-05 19:46:00,SystemResetWarning,0826.7,5.00,000.00,018.3,017.7,000.0,026.8,020.0,14.6,0000.0,0012.14,0003.55,0002.27
2024-03-05 19:47:00,SystemResetWarning,0826.6,5.01,000.00,018.3,017.7,000.0,026.8,020.0,14.3,0000.0,0013.79,0003.57,0002.29
2024-03-05 19:48:00,SystemResetWarning,0826.6,5.00,000.00,018.3,017.7,000.0,026.8,020.0,14.5,0000.0,0014.54,0003.60,0002.29
2024-03-05 19:49:00,SystemResetWarning,0826.6,4.99,000.00,018.3,017.7,000.0,026.8,020.0,14.7,0000.0,0014.01,0003.63,0002.32
2024-03-05 19:50:00,SystemResetWarning,0826.6,4.99,000.00,018.3,017.7,000.0,026.8,020.0,14.9,0000.0,0012.64,0003.58,0002.34
2024-03-05 19:51:00,SystemResetWarning,0826.6,5.00,000.00,018.3,017.7,000.0,026.8,020.0,15.1,0000.0,0012.41,0003.55,0002.35
2024-03-05 19:52:00,SystemResetWarning,0826.6,5.01,000.00,018.3,017.7,000.0,026.8,020.0,15.0,0000.0,0012.96,0003.58,0002.37
2024-03-05 19:53:00,SystemResetWarning,0826.5,5.00,000.00,018.3,017.7,000.0,026.8,020.0,15.0,0000.0,0013.29,0003.60,0002.37
2024-03-05 19:54:00,SystemResetWarning,0826.4,5.01,000.00,018.3,017.7,000.0,026.8,020.0,15.1,0000.0,0014.20,0003.61,0002.37
2024-03-05 19:55:00,SystemResetWarning,0826.4,4.99,000.00,018.3,017.7,000.0,026.8,020.0,15.1,0000.0,0014.74,0003.64,0002.38
2024-03-05 19:56:00,SystemResetWarning,0826.3,4.99,000.00,018.3,017.7,000.0,026.8,020.0,15.1,0000.0,0014.01,0003.65,0002.39
2024-03-05 19:57:00,SystemResetWarning,0826.3,5.01,000.00,018.3,017.7,000.0,026.8,020.0,15.1,0000.0,0014.19,0003.63,0002.38
2024-03-05 19:58:00,SystemResetWarning,0826.3,5.01,000.00,018.4,017.7,000.0,026.8,020.0,15.3,0000.0,0013.59,0003.62,0002.38
2024-03-05 19:59:00,SystemResetWarning,0826.4,4.99,000.00,018.4,017.8,000.0,026.8,020.0,15.2,0000.0,0013.78,0003.63,0002.39
